Regional Weather Roundup
Issued by NWS Grand Forks, ND

Home | Current Version | Previous Version | Graphics & Text | Print | Product List | Glossary On
Versions: 1 2 3 4 5 6 7 8 9 10 11 12 13 14 15 16 17 18 19 20 21 22 23 24 25 26 27 28 29 30 31 32 33 34 35 36 37 38 39 40 41 42 43 44 45 46 47 48 49 50
000
ASUS43 KFGF 061431
RWRFGF
PRAIRIE TO PINES  WEATHER ROUNDUP
NATIONAL WEATHER SERVICE EASTERN NORTH DAKOTA/GRAND FORKS ND
900 AM CDT WED MAY 06 2015

 **SATELLITE DATA USED TO AUGMENT SKY COVER AT AUTOMATED STATIONS**
 *****  WEATHER ACROSS EASTERN NORTH DAKOTA  *****

CITY           SKY/WX    TMP DP  RH WIND       PRES   REMARKS
GRAND FORKS    CLOUDY    60  56  86 S18G25    29.90F
GRAND FRKS AFB CLOUDY    59  55  85 S15G22    29.90S
GRAND FRKS NWS   N/A     57 N/A N/A S20         N/A
DEVILS LAKE    CLOUDY    59  54  82 S13       29.85F
FARGO          LGT RAIN  60  55  83 SE20G30   29.91F
WAHPETON ARPT  CLOUDY    55  54  94 SE16G22   29.94F
$$

 ***** WEATHER ACROSS CENTRAL AND WESTERN NORTH DAKOTA  *****

CITY           SKY/WX    TMP DP  RH WIND       PRES   REMARKS
BISMARCK       LGT RAIN  59  58  96 SE10      29.78F FOG
MINOT          CLOUDY    60  56  86 SE15      29.76F
JAMESTOWN      LGT RAIN  57  55  93 SE12      29.85F FOG
MINOT AFB      CLOUDY    62  62 100 S18       29.75S
GARRISON         N/A     59  57  93 S15       29.77S
WILLISTON      PTSUNNY   60  53  77 S12       29.70R
DICKINSON      CLOUDY    57  54  89 SE16      29.73S
HETTINGER      LGT RAIN  56  53  90 SE10      29.75F FOG
$$

 *****  OTHER AIRPORT OBSERVATIONS IN OUR AREA  *****

CITY           SKY/WX    TMP DP  RH WIND       PRES   REMARKS
WALHALLA       FAIR      61  61 100 S14G20    29.88F
GRAFTON AIRPOR CLOUDY    61  61 100 S16G25    29.90F
VALLEY CITY AR LGT RAIN  55  55 100 SE16      29.88F
CANDO          FAIR      59  57  94 S14G22    29.84F
CAVALIER APRT  PTSUNNY   61  55  82 S15       29.88F
GWINNER        CLOUDY    57  57 100 SE20      29.89F
SHEYENNE NWR     N/A     56  55  97 SE10      29.95S
ROLLA          NOT AVBL
 ***** THE ABOVE OBSERVATIONS ARE NON NWS ARE NOT QUALITY
       CONTROLLED AND MAY MIS-REPORT RAIN FOR SNOW...
$$

  *****  WEATHER ACROSS NORTHERN MINNESOTA  *****

CITY           SKY/WX    TMP DP  RH WIND       PRES   REMARKS
FLAG ISLAND    PTSUNNY   54  43  66 SE9       29.98F
WARROAD        LGT RAIN  61  48  63 SE8       29.97F
ROSEAU         PTSUNNY   61  48  63 SE12      29.95F
HALLOCK        CLOUDY    64  54  68 S18G25    29.89F
THF RVR FALLS  CLOUDY    64  54  68 S13       29.93F
BAUDETTE       CLOUDY    57  41  55 SE13      30.00F
WASKISH        CLOUDY    55  50  82 CALM      30.00F
CROOKSTON      CLOUDY    63  55  77 S18       29.93S
STEPHEN NDAWN    N/A     64  55  72 S14         N/A
GREENBUSH NDAW   N/A     63  48  59 SE12        N/A
$$
  *****  WEATHER ACROSS CENTRAL AND WEST MINNESOTA  *****

CITY           SKY/WX    TMP DP  RH WIND       PRES   REMARKS
FOSSTON        PTSUNNY   63  54  72 SE8       29.95F
BEMIDJI        CLOUDY    59  53  78 SE13G18   30.00S
PARK RAPIDS    CLOUDY    59  53  80 SE16      30.00F
ELBOW LAKE     CLOUDY    57  55  91 SE14      29.95F
WADENA         CLOUDY    55  54  94 SE13      29.98F FOG
DETROIT LAKES  CLOUDY    57  54  88 S17       29.97F
MOORHEAD       RAIN      57  55  94 SE13      29.93S
FERGUS FALLS   CLOUDY    57  55  94 SE18      29.96F
MORRIS MN      LGT RAIN  57  55  94 SE20      29.94F
STAPLES        CLOUDY    55  54  94 SE8       30.01F FOG
$$
  *****  WEATHER ELSEWHERE ACROSS MINNESOTA  *****

CITY           SKY/WX    TMP DP  RH WIND       PRES   REMARKS
DULUTH         CLOUDY    50  41  71 E10       30.11S
INTRNTL FALLS  CLOUDY    56  39  53 SE6       30.05F
ELY            CLOUDY    59  36  41 SE7       30.10F
CLOQUET        CLOUDY    46  41  81 E7        30.09F
WHEATON        LGT RAIN  54  54 100 SE18      29.94F
BRAINERD       CLOUDY    56  53  90 S9        30.05S
HIBBING        CLOUDY    52  42  69 SE10      30.09S
ALEXANDRIA     CLOUDY    56  54  93 SE16      29.99F FOG
SAINT CLOUD    FOG       56  55  97 SE9       30.04F VSB 1
MINNEAPOLIS    CLOUDY    57  55  93 SE12      30.07F FOG
$$

  *****  WEATHER ACROSS SOUTH DAKOTA  *****

CITY           SKY/WX    TMP DP  RH WIND       PRES   REMARKS
SIOUX FALLS    LGT RAIN  63  59  87 SE13      29.88F
BROOKINGS      CLOUDY    63  61  94 SE17      29.90F
WATERTOWN      LGT RAIN  62  59  90 SE12      29.88F FOG
HURON          CLOUDY    64  59  83 SE17G26   29.81F
SISSETON         N/A     56  56 100 S16       29.90F
ABERDEEN       LGT RAIN  63  60  90 SE10      29.83F FOG
MITCHELL       CLOUDY    63  60  90 SE17      29.83F
PIERRE         CLOUDY    61  58  90 SE14      29.74F
MOBRIDGE       CLOUDY    62  58  86 SE15      29.74F
RAPID CITY     LGT RAIN  54  53  97 SE8       29.71S FOG
$$

  *****  SOME WEATHER IN NEARBY STATES *****

CITY           SKY/WX    TMP DP  RH WIND       PRES   REMARKS
GLASGOW MT     CLOUDY    53  44  71 NW15      29.74R
GREAT FALLS MT MOSUNNY   42  33  70 N9        29.93R
CHEYENNE WY    RAIN      48  46  93 N9        29.72S FOG
SCOTTSBLUFF NE CLOUDY    53  52  96 E12       29.68R FOG
OMAHA NE       CLOUDY    66  60  81 SE21G29   29.85R
DES MOINES IA  CLOUDY    71  57  61 SE17      29.98F
DAVENPORT IA   MOSUNNY   63  58  83 SE10      30.13S HAZE
CHICAGO IL     FOG       55  55 100 E3        30.18S VSB 1/2
EAU CLAIRE WI  CLOUDY    54  51  90 SE8       30.12F
LA CROSSE WI   CLOUDY    59  55  87 SE5       30.12F FOG
$$

  *****  SOME NATIONAL WEATHER *****

CITY           SKY/WX    TMP DP  RH WIND       PRES   REMARKS
LA GUARDIA NY  CLOUDY    64  42  44 NE8       30.30R
RALEIGH NC     PTSUNNY   71  59  65 SW3       30.25S
ATLANTA GA     MOSUNNY   69  55  60 CALM      30.24S
NEW ORLEANS LA MOSUNNY   76  63  64 SE13      30.10R
OKLAHOMA CITY  CLOUDY    69  64  84 S16       29.91S
ALBUQUERQUE NM PTSUNNY   54  45  71 S6        29.96R
SALT LAKE CITY PTSUNNY   55  49  80 S8        29.81S
LOS ANGELES CA CLOUDY    59  50  72 SE3       29.91R
BOISE ID       PTSUNNY   43  28  55 NW9       29.89R
SEATTLE WA     PTSUNNY   46  45  93 NW3       30.14R
$$

*** WEATHER ACROSS MANITOBA...SASKATCHEWAN AND ONTARIO ***
                ***ONTARIO***

CITY           SKY/WX    TMP DP  RH WIND       PRES   REMARKS
GERALDTON      SUNNY     61  30  31 SW10      30.19F
THUNDER BAY    MOSUNNY   52  34  50 E3        30.20F
SIOUX LOOKOUT  MOSUNNY   57  34  41 S8        30.09F
TORONTO        MOSUNNY   64  43  45 SE10      30.29F
BIG TROUT LK   PTSUNNY   43  27  52 E8        30.18F
PICKLE LAKE    MOSUNNY   57  32  38 SW6       30.09F
DRYDEN         SUNNY     59  36  41 S12       30.06F
KENORA         PTSUNNY   59  39  47 S10       30.02
$$
                *** MANITOBA***

CITY           SKY/WX    TMP DP  RH WIND       PRES   REMARKS
BRANDON        PTSUNNY   59  54  82 SE10      29.81F
DAUPHIN        SUNNY     63  48  59 SE7       29.78F
ISLAND LAKE    MOSUNNY   45  34  65 E12G21    30.04F
PILOT MOUND      N/A     59  54  82 S17G23      N/A
THE PAS        CLOUDY    41  30  65 E12G22    29.84F
THOMPSON       LGTSLEET  28  23  80 NE14G22   30.17S WCI  17
WINNIPEG       PTSUNNY   64  50  59 S18       29.91S
LYNN LAKE      CLOUDY    28  18  64 E12G23    30.13S WCI  18
CHURCHILL      PTSUNNY   18 N/A N/A NW17        N/A  WCI   2
GILLAM         PTSUNNY   23  16  74 NE10      30.29F WCI  12
$$
                ***SASKATCHEWAN***

CITY           SKY/WX    TMP DP  RH WIND       PRES   REMARKS
ESTEVAN        CLOUDY    61  54  77 S17G24    29.70S
KINDERSLEY     CLOUDY    43  36  75 W20G29    29.77R
LLOYDMINSTER   LGT RAIN  39  36  87 N12       29.78R
PRINCE ALBERT  LGT RAIN  39  39 100 E8        29.76R
REGINA         MOSUNNY   57  50  77 SE9       29.69R
YORKTON        PTSUNNY   59  45  58 SE16      29.71F
N. BATTLEFORD  CLOUDY    46  43  87 E9        29.71R
LA RONGE       LGT RAIN  34  32  93 E13G21    29.92R WCI  25
SASKATOON      LGT RAIN  45  43  93 N6        29.71S
SWIFT CURRENT  CLOUDY    45  39  81 W24       29.76R
$$
NOTE: THESE ARE AUTOMATED STATIONS WITH LIMITED QUALITY CONTROL
      "FAIR" INDICATES FEW OR NO CLOUDS BELOW 12,000 FEET WITH NO
      SIGNIFICANT WEATHER AND/OR OBSTRUCTIONS TO VISIBILITY.
      SKY/WX - SKY CONDITION AND SIGNIFICANT WEATHER.
      TMP - AIR TEMPERATURE.    DP   - DEWPOINT TEMPERATURE.
      RH  - RELATIVE HUMIDITY.  PRES - PRESSURE.
      HX  - HEAT INDEX.         WCI  - WIND CHILL INDEX.
$


USA.gov is the U.S. government's official web portal to all federal, state and local government web resources and services.